STARLINK-32704, 62826

Orbit data source: Space-Track

STARLINK-32704, 62826 is a payload satellite owned by SpaceX/Seattle (US) in LEO that was launched on Fri, 24 Jan 2025 UTC via an FALCON 9 launch vehicle from the Air Force Western Test Range (AFWTR). Payload-class satellites include a variety of spacecraft equipped with specific instruments for various scientific and technological missions. These include communications satellites like Starlink; space stations such as the ISS; scientific satellites like the Hubble; Earth observation satellites from companies like Planet Labs, Umbra, and HawkEye 360; GPS; miniature CubeSats for education and research; and military/defense satellites.

Loading next visibility...
Identifier
62826, 2025-018W
Orbit
LEO
Country
Flag of USUS
Related business
Manufacturer
SpaceX/Seattle
Mission
Operational Commercial Communications
Bus & Motor
STARLINK V2M, Unknown motor
Mass
730 kg wet, ~700 kg dry
Launch date (UTC)
2025-01-24 (2 years ago)
Launch vehicle
FALCON 9
Launch site
Air Force Western Test Range (AFWTR)
Object type
Payload
Rocket body
Debris
Shape & HBR
Box + 2 Pan, 17.7 m
Radar Cross Section
33.884 m², Large (>1 m²)

Expand to show TLE details & history
Last TLE update: 20 hours ago

TLE from 20 hours ago
0 STARLINK-32704
1 62826U 25018W   26237.39003512  .00068052  00000-0  10646-2 0  9993
2 62826  53.1482 235.5276 0005888  22.2128 337.9136 15.53143927 89149
Epoch: 2026-08-25T09:21Z
TLE epoch observation values (Epoch: 2026-08-25T09:21:39.034Z)
Latitude
-0.00007°
Longitude
121.45683°
Altitude
404.759 km
Speed
7.671 km/s
True Right ascension
15h 42m 06s
True Declination
0° 00' 00"
Sunlit
Object was in daylight at epoch
Visualization orbit readout
Latitude
Unknown
Longitude
Unknown
Altitude
Unknown
Speed
Unknown
Apparent Right ascension
Unknown
Apparent Declination
Unknown
Sunlit
N/A
Visualization observer readout
Local Sidereal Time
20:47:18
Azimuth
Unknown
Elevation
Unknown
Doppler factor
Unknown
Orbital elements
Apogee altitude
411.81 km
Perigee altitude
403.819 km
Semi-major axis
6,785.951 km
Eccentricity
0.00059
Inclination
53.1482°
RAAN
235.5276°
Arg. of periapsis
22.2128°
True anomaly
337.88821°
Mean anomaly
337.9136°
Eccentric anomaly
337.90091°
Mean motion
3.88264 °/min
Orbital period
92.72 mins
BSTAR
0.0010646
Loading maneuver chart data...
Computing Atmospheric mass density...
Loading historical data...
Loading historical data...
Loading historical data...
Loading historical data...
Loading historical data...
Loading historical data...
Loading historical data...

Documentation

Showing up to 5 results
|